TimeMDT,TemperatureF,Dew PointF,Humidity,Sea Level PressureIn,VisibilityMPH,Wind Direction,Wind SpeedMPH,Gust SpeedMPH,PrecipitationIn,Events,Conditions,WindDirDegrees,DateUTC
12:53 AM,46.9,26.1,44,30.31,10.0,WSW,5.8,-,N/A,,Overcast,250,2013-03-11 06:53:00
1:53 AM,43.0,26.1,51,30.30,10.0,SW,6.9,-,N/A,,Mostly Cloudy,230,2013-03-11 07:53:00
2:53 AM,43.0,28.0,56,30.31,10.0,WSW,5.8,-,N/A,,Overcast,240,2013-03-11 08:53:00
3:53 AM,39.9,26.1,58,30.31,10.0,West,3.5,-,N/A,,Mostly Cloudy,260,2013-03-11 09:53:00
4:53 AM,39.9,25.0,55,30.31,10.0,WNW,3.5,-,N/A,,Scattered Clouds,290,2013-03-11 10:53:00
5:53 AM,37.9,26.1,62,30.30,10.0,WSW,6.9,-,N/A,,Clear,240,2013-03-11 11:53:00
6:53 AM,39.9,27.0,60,30.31,10.0,Calm,Calm,-,N/A,,Mostly Cloudy,0,2013-03-11 12:53:00
7:53 AM,39.9,28.9,65,30.32,10.0,Calm,Calm,-,N/A,,Overcast,0,2013-03-11 13:53:00
8:53 AM,46.0,36.0,68,30.32,10.0,North,5.8,-,N/A,,Clear,350,2013-03-11 14:53:00
9:53 AM,50.0,37.0,61,30.32,10.0,North,4.6,-,N/A,,Scattered Clouds,350,2013-03-11 15:53:00
10:53 AM,54.0,36.0,51,30.31,10.0,NW,12.7,-,N/A,,Partly Cloudy,310,2013-03-11 16:53:00
11:53 AM,55.9,36.0,47,30.31,10.0,NNW,13.8,-,N/A,,Mostly Cloudy,330,2013-03-11 17:53:00
12:53 PM,55.9,35.1,45,30.30,10.0,NNW,8.1,-,N/A,,Mostly Cloudy,340,2013-03-11 18:53:00
1:53 PM,55.9,35.1,45,30.29,10.0,NW,4.6,-,N/A,,Overcast,310,2013-03-11 19:53:00
2:53 PM,57.9,34.0,41,30.27,10.0,NNW,8.1,17.3,N/A,,Mostly Cloudy,340,2013-03-11 20:53:00
3:53 PM,59.0,34.0,39,30.25,10.0,NW,6.9,18.4,N/A,,Overcast,310,2013-03-11 21:53:00
4:53 PM,57.9,32.0,37,30.24,10.0,North,10.4,-,N/A,,Overcast,350,2013-03-11 22:53:00
5:53 PM,57.9,30.0,35,30.24,10.0,North,5.8,-,N/A,,Overcast,350,2013-03-11 23:53:00
6:53 PM,55.9,30.0,37,30.24,10.0,NNW,6.9,-,N/A,,Overcast,330,2013-03-12 00:53:00
7:53 PM,54.0,34.0,47,30.25,10.0,NNW,5.8,-,N/A,,Overcast,330,2013-03-12 01:53:00
8:53 PM,52.0,34.0,50,30.26,10.0,SSW,3.5,-,N/A,,Overcast,210,2013-03-12 02:53:00
9:53 PM,50.0,34.0,54,30.26,10.0,WNW,4.6,-,N/A,,Overcast,300,2013-03-12 03:53:00
10:53 PM,48.0,34.0,58,30.27,10.0,NW,3.5,-,N/A,,Partly Cloudy,310,2013-03-12 04:53:00
11:53 PM,46.9,33.1,59,30.27,10.0,Calm,Calm,-,N/A,,Partly Cloudy,0,2013-03-12 05:53:00